HUSKYSAT-1

Last updated on Mon Mar 01 2021 11:36:23 GMT+0000 (Coordinated Universal Time)

1 45119U 19071J 21059.78816517 .00003252 00000-0 10532-3 0 9994 2 45119 51.6417 203.4884 0011199 256.6274 103.3461 15.34990151 60471

Satellite not in orbit

HUSKYSAT-1